Time,TemperatureF,DewpointF,PressureIn,WindDirection,WindDirectionDegrees,WindSpeedMPH,WindSpeedGustMPH,Humidity,HourlyPrecipIn,Conditions,Clouds,dailyrainin,SoftwareType,DateUTC
2013-01-24 00:00:00,29.0,-11.0,-100.00,WSW,252,24.0,38.0,16,-99.99,,,-99.99,,2013-01-24 07:00:00,
2013-01-24 00:43:00,29.0,-11.0,-100.00,WSW,252,24.0,38.0,16,-99.99,,,-99.99,,2013-01-24 07:43:00,
2013-01-24 00:53:00,29.0,-11.0,-100.00,WSW,252,24.0,38.0,16,-99.99,,,-99.99,,2013-01-24 07:53:00,
2013-01-24 02:00:00,27.0,-11.0,-100.00,West,259,26.0,41.0,17,-99.99,,,-99.99,,2013-01-24 09:00:00,
2013-01-24 02:43:00,27.0,-11.0,-100.00,West,259,26.0,41.0,17,-99.99,,,-99.99,,2013-01-24 09:43:00,
2013-01-24 02:53:00,27.0,-11.0,-100.00,West,259,26.0,41.0,17,-99.99,,,-99.99,,2013-01-24 09:53:00,
2013-01-24 04:00:00,28.0,-15.0,-100.00,West,261,26.0,44.0,14,-99.99,,,-99.99,,2013-01-24 11:00:00,
2013-01-24 04:43:00,28.0,-15.0,-100.00,West,261,26.0,44.0,14,-99.99,,,-99.99,,2013-01-24 11:43:00,
2013-01-24 04:53:00,28.0,-15.0,-100.00,West,261,26.0,44.0,14,-99.99,,,-99.99,,2013-01-24 11:53:00,
2013-01-24 06:00:00,27.0,-13.0,-100.00,West,267,28.0,50.0,16,-99.99,,,-99.99,,2013-01-24 13:00:00,
2013-01-24 06:43:00,27.0,-13.0,-100.00,West,267,28.0,50.0,16,-99.99,,,-99.99,,2013-01-24 13:43:00,
2013-01-24 06:53:00,27.0,-13.0,-100.00,West,267,28.0,50.0,16,-99.99,,,-99.99,,2013-01-24 13:53:00,
2013-01-24 07:00:00,26.0,-12.0,-100.00,West,271,26.0,44.0,17,-99.99,,,-99.99,,2013-01-24 14:00:00,
2013-01-24 07:43:00,26.0,-12.0,-100.00,West,271,26.0,44.0,17,-99.99,,,-99.99,,2013-01-24 14:43:00,
2013-01-24 07:54:00,26.0,-12.0,-100.00,West,271,26.0,44.0,17,-99.99,,,-99.99,,2013-01-24 14:54:00,
2013-01-24 13:00:00,26.0,13.0,-100.00,WSW,256,27.0,52.0,57,-99.99,,,-99.99,,2013-01-24 20:00:00,
2013-01-24 13:43:00,26.0,13.0,-100.00,WSW,256,27.0,52.0,57,-99.99,,,-99.99,,2013-01-24 20:43:00,
2013-01-24 13:52:00,26.0,13.0,-100.00,WSW,256,27.0,52.0,57,-99.99,,,-99.99,,2013-01-24 20:52:00,
2013-01-24 18:00:00,22.0,21.0,-100.00,West,260,22.0,35.0,93,-99.99,,,-99.99,,2013-01-25 01:00:00,
2013-01-24 18:43:00,22.0,21.0,-100.00,West,260,22.0,35.0,93,-99.99,,,-99.99,,2013-01-25 01:43:00,
2013-01-24 18:52:00,22.0,21.0,-100.00,West,260,22.0,35.0,93,-99.99,,,-99.99,,2013-01-25 01:52:00,
2013-01-24 19:00:00,22.0,21.0,-100.00,West,266,15.0,28.0,95,-99.99,,,-99.99,,2013-01-25 02:00:00,
2013-01-24 19:43:00,22.0,21.0,-100.00,West,266,15.0,28.0,95,-99.99,,,-99.99,,2013-01-25 02:43:00,
2013-01-24 19:53:00,22.0,21.0,-100.00,West,266,15.0,28.0,95,-99.99,,,-99.99,,2013-01-25 02:53:00,
2013-01-24 21:00:00,21.0,20.0,-100.00,West,281,13.0,25.0,96,-99.99,,,-99.99,,2013-01-25 04:00:00,
2013-01-24 21:42:00,21.0,20.0,-100.00,West,281,13.0,25.0,96,-99.99,,,-99.99,,2013-01-25 04:42:00,
2013-01-24 21:52:00,21.0,20.0,-100.00,West,281,13.0,25.0,96,-99.99,,,-99.99,,2013-01-25 04:52:00,